Back to Top

Language: 

My Weather Underground Personal Weather Station Historical Data with Graphs...

Delerius Weather Station Historical Data
Daily Summary for February 11, 2017 Units:  English    Metric   Both
« Previous Day
Next Day »
Daily Weekly Monthly Yearly Custom
  High: Low: Average:
Temperature: 37.4 °F 34.2 °F 36.1 °F
Dew Point: 36.4 °F 30.7 °F 34.8 °F
Humidity: 97 % 85 % 95 %
Wind Speed: 9.0 mph 0.0 mph 4.9 mph
Wind Gust: 14.0 mph - -
Wind:- - ESE
Pressure: 30.33 in 30.27 in -
Precipitation: 0.15 in    
Historical Graphs
 
 
Tabular Data for February 11, 2017
Time Temperature Dew Point Pressure Wind Wind Speed Wind Gust Humidity Rainfall Rate (Hourly) solar Conditions
00:00 34.7 °F 30.7 °F 30.31 in NNW 4.0 mph 8.0 mph 85 % 0.00 in 0 W/m2
00:05 34.7 °F 30.7 °F 30.31 in West 5.0 mph 11.0 mph 85 % 0.00 in 0 W/m2
00:15 34.8 °F 30.8 °F 30.31 in NW 6.0 mph 7.0 mph 85 % 0.00 in 0 W/m2
00:20 34.8 °F 30.8 °F 30.31 in NNW 5.0 mph 5.0 mph 85 % 0.00 in 0 W/m2
00:25 34.8 °F 31.0 °F 30.31 in NNW 5.0 mph 6.0 mph 86 % 0.00 in 0 W/m2
00:35 34.8 °F 31.0 °F 30.31 in NNW 5.0 mph 7.0 mph 86 % 0.00 in 0 W/m2
00:40 34.8 °F 31.3 °F 30.31 in NNE 5.0 mph 7.0 mph 87 % 0.00 in 0 W/m2
00:50 34.8 °F 31.3 °F 30.31 in NNW 6.0 mph 9.0 mph 87 % 0.00 in 0 W/m2
00:55 34.8 °F 31.6 °F 30.30 in NNW 6.0 mph 9.0 mph 88 % 0.00 in 0 W/m2
01:05 34.7 °F 31.5 °F 30.30 in North 6.0 mph 8.0 mph 88 % 0.00 in 0 W/m2
01:10 34.8 °F 31.6 °F 30.30 in NW 7.0 mph 11.0 mph 88 % 0.00 in 0 W/m2
01:20 34.8 °F 31.6 °F 30.30 in NNW 6.0 mph 6.0 mph 88 % 0.00 in 0 W/m2
01:25 34.7 °F 31.8 °F 30.30 in NNW 6.0 mph 7.0 mph 89 % 0.00 in 0 W/m2
01:30 34.7 °F 31.8 °F 30.30 in NNW 6.0 mph 6.0 mph 89 % 0.00 in 0 W/m2
01:35 34.7 °F 31.8 °F 30.30 in North 5.0 mph 11.0 mph 89 % 0.00 in 0 W/m2
01:40 34.8 °F 31.9 °F 30.30 in NW 6.0 mph 11.0 mph 89 % 0.00 in 0 W/m2
01:50 34.8 °F 32.2 °F 30.29 in NNW 7.0 mph 11.0 mph 90 % 0.00 in 0 W/m2
02:00 34.8 °F 32.4 °F 30.29 in NW 7.0 mph 7.0 mph 91 % 0.00 in 0 W/m2
02:05 34.8 °F 32.4 °F 30.29 in NNW 7.0 mph 10.0 mph 91 % 0.00 in 0 W/m2
02:10 34.7 °F 32.3 °F 30.29 in NW 7.0 mph 11.0 mph 91 % 0.00 in 0 W/m2
02:20 34.6 °F 32.5 °F 30.29 in North 5.0 mph 11.0 mph 92 % 0.00 in 0 W/m2
02:30 34.5 °F 32.7 °F 30.28 in NNW 7.0 mph 11.0 mph 93 % 0.00 in 0 W/m2
02:35 34.5 °F 32.7 °F 30.28 in NNE 8.0 mph 11.0 mph 93 % 0.00 in 0 W/m2
02:40 34.5 °F 32.7 °F 30.28 in NNW 7.0 mph 7.0 mph 93 % 0.00 in 0 W/m2
02:45 34.5 °F 32.7 °F 30.28 in NNW 7.0 mph 11.0 mph 93 % 0.00 in 0 W/m2
02:50 34.4 °F 32.6 °F 30.28 in NW 7.0 mph 11.0 mph 93 % 0.00 in 0 W/m2
03:00 34.4 °F 32.9 °F 30.28 in NNW 6.0 mph 6.0 mph 94 % 0.00 in 0 W/m2
03:05 34.4 °F 32.9 °F 30.27 in NNW 7.0 mph 7.0 mph 94 % 0.00 in 0 W/m2
03:15 34.4 °F 32.9 °F 30.27 in NNW 6.0 mph 10.0 mph 94 % 0.00 in 0 W/m2
03:20 34.5 °F 33.0 °F 30.27 in NNW 7.0 mph 7.0 mph 94 % 0.00 in 0 W/m2
03:25 34.5 °F 33.0 °F 30.27 in NW 8.0 mph 8.0 mph 94 % 0.00 in 0 W/m2
03:30 34.5 °F 33.0 °F 30.27 in NNW 7.0 mph 7.0 mph 94 % 0.00 in 0 W/m2
03:35 34.4 °F 32.9 °F 30.27 in NW 7.0 mph 8.0 mph 94 % 0.00 in 0 W/m2
03:40 34.5 °F 33.2 °F 30.27 in NNW 7.0 mph 7.0 mph 95 % 0.00 in 0 W/m2
03:50 34.3 °F 33.0 °F 30.27 in NNW 7.0 mph 7.0 mph 95 % 0.00 in 0 W/m2
03:55 34.3 °F 33.0 °F 30.27 in NNW 7.0 mph 8.0 mph 95 % 0.00 in 0 W/m2
04:00 34.3 °F 33.0 °F 30.27 in NNW 6.0 mph 6.0 mph 95 % 0.00 in 0 W/m2
04:10 34.3 °F 33.0 °F 30.27 in NW 6.0 mph 6.0 mph 95 % 0.00 in 0 W/m2
04:15 34.3 °F 33.0 °F 30.27 in North 6.0 mph 9.0 mph 95 % 0.00 in 0 W/m2
04:25 34.3 °F 33.0 °F 30.27 in North 5.0 mph 12.0 mph 95 % 0.00 in 0 W/m2
04:30 34.2 °F 32.9 °F 30.27 in NNE 5.0 mph 5.0 mph 95 % 0.00 in 0 W/m2
04:35 34.2 °F 32.9 °F 30.27 in North 6.0 mph 7.0 mph 95 % 0.00 in 0 W/m2
04:40 34.2 °F 32.9 °F 30.27 in NNE 6.0 mph 11.0 mph 95 % 0.00 in 0 W/m2
04:45 34.2 °F 32.9 °F 30.27 in NNW 6.0 mph 11.0 mph 95 % 0.00 in 0 W/m2
04:50 34.2 °F 33.2 °F 30.28 in NNW 5.0 mph 11.0 mph 96 % 0.00 in 0 W/m2
04:55 34.2 °F 33.2 °F 30.28 in North 6.0 mph 11.0 mph 96 % 0.00 in 0 W/m2
05:00 34.2 °F 33.2 °F 30.27 in NNW 6.0 mph 11.0 mph 96 % 0.00 in 0 W/m2
05:10 34.4 °F 33.4 °F 30.28 in NNE 7.0 mph 11.0 mph 96 % 0.00 in 0 W/m2
05:20 34.5 °F 33.5 °F 30.28 in North 6.0 mph 11.0 mph 96 % 0.00 in 0 W/m2
05:25 34.6 °F 33.6 °F 30.28 in North 7.0 mph 11.0 mph 96 % 0.00 in 0 W/m2
05:30 34.7 °F 33.7 °F 30.28 in NW 7.0 mph 11.0 mph 96 % 0.00 in 0 W/m2
05:35 34.7 °F 33.7 °F 30.28 in NNW 7.0 mph 12.0 mph 96 % 0.00 in 0 W/m2
05:40 34.7 °F 33.7 °F 30.27 in NNW 7.0 mph 11.0 mph 96 % 0.00 in 0 W/m2
05:50 34.7 °F 33.7 °F 30.28 in North 8.0 mph 11.0 mph 96 % 0.00 in 0 W/m2
05:55 34.7 °F 33.7 °F 30.28 in North 8.0 mph 11.0 mph 96 % 0.00 in 0 W/m2
06:00 34.7 °F 33.7 °F 30.28 in North 7.0 mph 7.0 mph 96 % 0.00 in 0 W/m2
06:05 34.7 °F 33.7 °F 30.28 in NNE 7.0 mph 11.0 mph 96 % 0.00 in 0 W/m2
06:10 34.7 °F 33.7 °F 30.27 in North 7.0 mph 11.0 mph 96 % 0.00 in 0 W/m2
06:20 34.7 °F 33.7 °F 30.27 in North 6.0 mph 6.0 mph 96 % 0.00 in 0 W/m2
06:30 34.8 °F 33.8 °F 30.27 in NNW 5.0 mph 5.0 mph 96 % 0.00 in 0 W/m2
06:35 34.8 °F 33.8 °F 30.27 in North 4.0 mph 11.0 mph 96 % 0.00 in 0 W/m2
06:40 34.8 °F 33.8 °F 30.27 in North 5.0 mph 11.0 mph 96 % 0.00 in 0 W/m2
06:45 34.8 °F 33.8 °F 30.27 in NNW 4.0 mph 11.0 mph 96 % 0.00 in 0 W/m2
06:50 34.9 °F 33.9 °F 30.27 in NNW 5.0 mph 11.0 mph 96 % 0.00 in 0 W/m2
07:00 35.0 °F 34.0 °F 30.27 in NNE 5.0 mph 5.0 mph 96 % 0.00 in 0 W/m2
07:05 35.0 °F 34.0 °F 30.27 in NNE 4.0 mph 7.0 mph 96 % 0.00 in 0 W/m2
07:10 35.1 °F 34.1 °F 30.27 in NNW 5.0 mph 11.0 mph 96 % 0.00 in 0 W/m2
07:15 35.1 °F 34.1 °F 30.27 in North 6.0 mph 11.0 mph 96 % 0.00 in 0 W/m2
07:25 35.3 °F 34.3 °F 30.28 in NW 3.0 mph 8.0 mph 96 % 0.00 in 0 W/m2
07:35 35.4 °F 34.6 °F 30.28 in NE 4.0 mph 11.0 mph 97 % 0.00 in 0 W/m2
07:40 35.5 °F 34.7 °F 30.28 in North 4.0 mph 11.0 mph 97 % 0.00 in 0 W/m2
07:45 35.6 °F 34.8 °F 30.28 in NE 4.0 mph 11.0 mph 97 % 0.00 in 0 W/m2
07:50 35.6 °F 34.8 °F 30.28 in NNE 5.0 mph 5.0 mph 97 % 0.00 in 0 W/m2
07:55 35.7 °F 34.9 °F 30.28 in NNE 5.0 mph 11.0 mph 97 % 0.00 in 0 W/m2
08:05 35.7 °F 34.9 °F 30.29 in East 3.0 mph 11.0 mph 97 % 0.00 in 0 W/m2
08:10 35.7 °F 34.9 °F 30.29 in NNE 2.0 mph 11.0 mph 97 % 0.00 in 0 W/m2
08:15 35.8 °F 35.0 °F 30.29 in NNW 2.0 mph 11.0 mph 97 % 0.00 in 0 W/m2
08:25 35.7 °F 34.9 °F 30.29 in ENE 1.0 mph 11.0 mph 97 % 0.00 in 0 W/m2
08:30 35.7 °F 34.9 °F 30.30 in ENE 1.0 mph 1.0 mph 97 % 0.05 in 0 W/m2
08:40 35.6 °F 34.8 °F 30.30 in ENE 1.0 mph 1.0 mph 97 % 0.04 in 0 W/m2
08:45 35.6 °F 34.8 °F 30.30 in NE 2.0 mph 2.0 mph 97 % 0.04 in 0 W/m2
08:50 35.6 °F 34.8 °F 30.30 in NE 1.0 mph 1.0 mph 97 % 0.04 in 0 W/m2
08:55 35.6 °F 34.8 °F 30.30 in NE 1.0 mph 11.0 mph 97 % 0.04 in 0 W/m2
09:00 35.6 °F 34.8 °F 30.30 in Calm   11.0 mph 97 % 0.00 in 5 W/m2
09:10 35.7 °F 34.9 °F 30.30 in ENE 1.0 mph 1.0 mph 97 % 0.00 in 5 W/m2
09:15 35.7 °F 34.9 °F 30.30 in ENE 1.0 mph 11.0 mph 97 % 0.00 in 5 W/m2
09:20 35.7 °F 34.9 °F 30.30 in NNE 1.0 mph 11.0 mph 97 % 0.04 in 5 W/m2
09:25 35.8 °F 35.0 °F 30.30 in North 2.0 mph 11.0 mph 97 % 0.04 in 9 W/m2
09:30 35.8 °F 35.0 °F 30.30 in NNE 2.0 mph 11.0 mph 97 % 0.04 in 7 W/m2
09:35 35.9 °F 35.1 °F 30.30 in NE 2.0 mph 11.0 mph 97 % 0.04 in 7 W/m2
09:40 36.0 °F 35.2 °F 30.30 in NE 2.0 mph 11.0 mph 97 % 0.00 in 7 W/m2
09:45 36.1 °F 35.3 °F 30.30 in NNE 2.0 mph 11.0 mph 97 % 0.00 in 9 W/m2
09:50 36.1 °F 35.3 °F 30.30 in ENE 3.0 mph 11.0 mph 97 % 0.00 in 7 W/m2
09:55 36.2 °F 35.4 °F 30.30 in ENE 3.0 mph 11.0 mph 97 % 0.00 in 7 W/m2
10:00 36.3 °F 35.5 °F 30.30 in East 3.0 mph 3.0 mph 97 % 0.00 in 9 W/m2
10:10 36.3 °F 35.5 °F 30.30 in NE 3.0 mph 11.0 mph 97 % 0.00 in 9 W/m2
10:15 36.3 °F 35.5 °F 30.30 in ENE 3.0 mph 11.0 mph 97 % 0.00 in 11 W/m2
10:25 36.3 °F 35.5 °F 30.30 in ENE 3.0 mph 11.0 mph 97 % 0.00 in 25 W/m2
10:35 36.4 °F 35.6 °F 30.30 in NNE 1.0 mph 11.0 mph 97 % 0.00 in 18 W/m2
10:40 36.4 °F 35.6 °F 30.30 in NNE 1.0 mph 11.0 mph 97 % 0.00 in 28 W/m2
10:45 36.5 °F 35.7 °F 30.30 in NNE 2.0 mph 11.0 mph 97 % 0.00 in 26 W/m2
10:50 36.6 °F 35.8 °F 30.30 in NE 2.0 mph 11.0 mph 97 % 0.00 in 32 W/m2
10:55 36.8 °F 36.0 °F 30.30 in NNE 2.0 mph 11.0 mph 97 % 0.00 in 23 W/m2
11:00 36.9 °F 36.1 °F 30.30 in NNE 2.0 mph 2.0 mph 97 % 0.00 in 26 W/m2
11:10 37.0 °F 36.2 °F 30.30 in ENE 3.0 mph 3.0 mph 97 % 0.00 in 14 W/m2
11:15 37.1 °F 36.3 °F 30.30 in NNW 4.0 mph 4.0 mph 97 % 0.00 in 12 W/m2
11:20 37.1 °F 36.3 °F 30.31 in NNE 4.0 mph 11.0 mph 97 % 0.00 in 12 W/m2
11:30 37.1 °F 36.3 °F 30.31 in East 4.0 mph 4.0 mph 97 % 0.00 in 23 W/m2
11:40 37.1 °F 36.3 °F 30.31 in ENE 2.0 mph 11.0 mph 97 % 0.00 in 26 W/m2
11:45 37.1 °F 36.3 °F 30.30 in ENE 2.0 mph 11.0 mph 97 % 0.00 in 19 W/m2
11:50 37.1 °F 36.3 °F 30.30 in ENE 3.0 mph 3.0 mph 97 % 0.00 in 21 W/m2
11:55 37.0 °F 36.2 °F 30.31 in NNE 4.0 mph 6.0 mph 97 % 0.00 in 19 W/m2
12:00 36.9 °F 35.9 °F 30.31 in NE 5.0 mph 11.0 mph 96 % 0.00 in 12 W/m2
12:05 36.8 °F 35.8 °F 30.30 in NE 5.0 mph 11.0 mph 96 % 0.00 in 26 W/m2
12:10 36.8 °F 35.8 °F 30.30 in ESE 5.0 mph 5.0 mph 96 % 0.00 in 30 W/m2
12:15 36.8 °F 35.8 °F 30.30 in North 4.0 mph 11.0 mph 96 % 0.00 in 28 W/m2
12:25 36.9 °F 35.9 °F 30.30 in Calm   11.0 mph 96 % 0.00 in 23 W/m2
12:30 36.9 °F 35.9 °F 30.30 in NE 2.0 mph 2.0 mph 96 % 0.00 in 28 W/m2
12:40 36.8 °F 35.8 °F 30.30 in ENE 4.0 mph 4.0 mph 96 % 0.00 in 19 W/m2
12:45 36.8 °F 35.8 °F 30.30 in ENE 5.0 mph 5.0 mph 96 % 0.00 in 26 W/m2
12:50 36.7 °F 35.7 °F 30.30 in East 3.0 mph 11.0 mph 96 % 0.00 in 16 W/m2
13:00 36.6 °F 35.6 °F 30.30 in NNE 4.0 mph 4.0 mph 96 % 0.00 in 33 W/m2
13:05 36.5 °F 35.5 °F 30.30 in NE 3.0 mph 5.0 mph 96 % 0.00 in 35 W/m2
13:15 36.5 °F 35.5 °F 30.30 in North 4.0 mph 11.0 mph 96 % 0.00 in 30 W/m2
13:20 36.5 °F 35.5 °F 30.30 in NE 6.0 mph 11.0 mph 96 % 0.00 in 18 W/m2
13:25 36.4 °F 35.4 °F 30.30 in ENE 6.0 mph 11.0 mph 96 % 0.00 in 16 W/m2
13:30 36.4 °F 35.4 °F 30.30 in East 6.0 mph 6.0 mph 96 % 0.00 in 14 W/m2
13:40 36.3 °F 35.3 °F 30.30 in NE 5.0 mph 5.0 mph 96 % 0.00 in 18 W/m2
13:45 36.3 °F 35.3 °F 30.30 in ENE 5.0 mph 11.0 mph 96 % 0.00 in 12 W/m2
13:50 36.3 °F 35.3 °F 30.30 in NE 3.0 mph 11.0 mph 96 % 0.00 in 18 W/m2
13:55 36.3 °F 35.3 °F 30.30 in ENE 3.0 mph 11.0 mph 96 % 0.00 in 19 W/m2
14:00 36.3 °F 35.3 °F 30.30 in ENE 3.0 mph 3.0 mph 96 % 0.00 in 21 W/m2
14:05 36.3 °F 35.3 °F 30.30 in ESE 3.0 mph 11.0 mph 96 % 0.00 in 23 W/m2
14:10 36.3 °F 35.3 °F 30.30 in NNE 4.0 mph 11.0 mph 96 % 0.00 in 18 W/m2
14:20 36.5 °F 35.5 °F 30.30 in NE 4.0 mph 11.0 mph 96 % 0.00 in 11 W/m2
14:30 36.6 °F 35.6 °F 30.30 in NE 5.0 mph 11.0 mph 96 % 0.00 in 12 W/m2
14:35 36.6 °F 35.6 °F 30.30 in NE 5.0 mph 11.0 mph 96 % 0.00 in 12 W/m2
14:40 36.7 °F 35.7 °F 30.30 in NNE 6.0 mph 6.0 mph 96 % 0.00 in 16 W/m2
14:45 36.7 °F 35.7 °F 30.29 in North 6.0 mph 9.0 mph 96 % 0.00 in 16 W/m2
14:55 36.7 °F 35.7 °F 30.29 in East 6.0 mph 7.0 mph 96 % 0.00 in 14 W/m2
15:00 36.7 °F 35.7 °F 30.29 in ENE 6.0 mph 11.0 mph 96 % 0.00 in 12 W/m2
15:05 36.7 °F 35.7 °F 30.29 in East 6.0 mph 11.0 mph 96 % 0.00 in 11 W/m2
15:10 36.8 °F 35.8 °F 30.29 in East 5.0 mph 11.0 mph 96 % 0.00 in 9 W/m2
15:15 36.8 °F 35.8 °F 30.29 in ENE 5.0 mph 11.0 mph 96 % 0.00 in 9 W/m2
15:20 36.8 °F 35.8 °F 30.29 in East 4.0 mph 4.0 mph 96 % 0.00 in 9 W/m2
15:25 36.8 °F 35.8 °F 30.29 in NE 4.0 mph 5.0 mph 96 % 0.00 in 5 W/m2
15:35 36.8 °F 35.8 °F 30.29 in East 3.0 mph 11.0 mph 96 % 0.00 in 7 W/m2
15:40 36.9 °F 35.9 °F 30.29 in ENE 3.0 mph 11.0 mph 96 % 0.00 in 5 W/m2
15:50 36.9 °F 35.9 °F 30.30 in ENE 3.0 mph 3.0 mph 96 % 0.00 in 9 W/m2
15:55 36.9 °F 35.9 °F 30.30 in NE 1.0 mph 11.0 mph 96 % 0.00 in 12 W/m2
16:05 37.0 °F 36.0 °F 30.30 in NE 1.0 mph 11.0 mph 96 % 0.00 in 9 W/m2
16:10 37.1 °F 36.1 °F 30.29 in NNE 3.0 mph 11.0 mph 96 % 0.00 in 12 W/m2
16:15 37.2 °F 36.2 °F 30.30 in NNE 5.0 mph 11.0 mph 96 % 0.00 in 14 W/m2
16:20 37.2 °F 36.2 °F 30.29 in NE 6.0 mph 11.0 mph 96 % 0.00 in 9 W/m2
16:30 37.1 °F 36.1 °F 30.29 in NE 5.0 mph 11.0 mph 96 % 0.00 in 5 W/m2
16:35 37.1 °F 36.1 °F 30.29 in East 5.0 mph 11.0 mph 96 % 0.00 in 7 W/m2
16:40 37.1 °F 36.1 °F 30.30 in NE 5.0 mph 5.0 mph 96 % 0.00 in 0 W/m2
16:45 37.1 °F 36.1 °F 30.30 in NNE 5.0 mph 11.0 mph 96 % 0.00 in 0 W/m2
16:50 37.1 °F 36.1 °F 30.30 in NNE 5.0 mph 11.0 mph 96 % 0.00 in 0 W/m2
16:55 37.1 °F 36.1 °F 30.30 in NE 6.0 mph 11.0 mph 96 % 0.00 in 0 W/m2
17:05 37.2 °F 36.2 °F 30.30 in ENE 5.0 mph 11.0 mph 96 % 0.00 in 0 W/m2
17:10 37.2 °F 36.2 °F 30.30 in ESE 3.0 mph 3.0 mph 96 % 0.00 in 0 W/m2
17:15 37.2 °F 36.2 °F 30.30 in ENE 2.0 mph 11.0 mph 96 % 0.00 in 0 W/m2
17:20 37.3 °F 36.3 °F 30.30 in North 3.0 mph 11.0 mph 96 % 0.00 in 0 W/m2
17:25 37.3 °F 36.3 °F 30.30 in ENE 3.0 mph 11.0 mph 96 % 0.00 in 0 W/m2
17:35 37.3 °F 36.3 °F 30.30 in NNE 3.0 mph 5.0 mph 96 % 0.00 in 0 W/m2
17:40 37.3 °F 36.3 °F 30.30 in NE 4.0 mph 11.0 mph 96 % 0.00 in 0 W/m2
17:45 37.2 °F 36.2 °F 30.30 in ENE 6.0 mph 11.0 mph 96 % 0.00 in 0 W/m2
17:55 37.2 °F 36.2 °F 30.31 in NE 5.0 mph 11.0 mph 96 % 0.00 in 0 W/m2
18:00 37.2 °F 36.2 °F 30.31 in NNE 5.0 mph 11.0 mph 96 % 0.00 in 0 W/m2
18:05 37.2 °F 36.2 °F 30.31 in NE 6.0 mph 11.0 mph 96 % 0.00 in 0 W/m2
18:10 37.1 °F 36.1 °F 30.31 in NNE 6.0 mph 6.0 mph 96 % 0.00 in 0 W/m2
18:15 37.1 °F 36.1 °F 30.31 in North 3.0 mph 11.0 mph 96 % 0.00 in 0 W/m2
18:20 37.1 °F 35.8 °F 30.31 in North 2.0 mph 11.0 mph 95 % 0.00 in 0 W/m2
18:30 37.0 °F 35.7 °F 30.31 in NNE 3.0 mph 11.0 mph 95 % 0.00 in 0 W/m2
18:40 37.0 °F 36.0 °F 30.31 in North 5.0 mph 11.0 mph 96 % 0.00 in 0 W/m2
18:45 37.0 °F 35.7 °F 30.31 in NE 3.0 mph 11.0 mph 95 % 0.00 in 0 W/m2
18:50 37.0 °F 35.7 °F 30.31 in NNE 4.0 mph 11.0 mph 95 % 0.00 in 0 W/m2
18:55 37.0 °F 35.7 °F 30.31 in NE 5.0 mph 11.0 mph 95 % 0.00 in 0 W/m2
19:00 36.9 °F 35.6 °F 30.31 in NNE 4.0 mph 11.0 mph 95 % 0.00 in 0 W/m2
19:10 36.9 °F 35.6 °F 30.31 in NE 3.0 mph 3.0 mph 95 % 0.00 in 0 W/m2
19:15 36.9 °F 35.6 °F 30.31 in NE 3.0 mph 11.0 mph 95 % 0.00 in 0 W/m2
19:20 36.9 °F 35.6 °F 30.31 in NE 3.0 mph 11.0 mph 95 % 0.00 in 0 W/m2
19:25 37.0 °F 35.7 °F 30.31 in NE 4.0 mph 11.0 mph 95 % 0.00 in 0 W/m2
19:30 36.9 °F 35.6 °F 30.32 in ESE 5.0 mph 5.0 mph 95 % 0.00 in 0 W/m2
19:40 36.9 °F 35.6 °F 30.32 in NNE 4.0 mph 11.0 mph 95 % 0.00 in 0 W/m2
19:50 36.9 °F 35.6 °F 30.32 in NNE 6.0 mph 12.0 mph 95 % 0.00 in 0 W/m2
19:55 36.9 °F 35.6 °F 30.32 in NE 7.0 mph 12.0 mph 95 % 0.00 in 0 W/m2
20:00 36.9 °F 35.6 °F 30.32 in NNE 7.0 mph 7.0 mph 95 % 0.00 in 0 W/m2
20:05 36.9 °F 35.9 °F 30.32 in NNE 7.0 mph 9.0 mph 96 % 0.00 in 0 W/m2
20:10 36.9 °F 35.9 °F 30.32 in NE 6.0 mph 11.0 mph 96 % 0.00 in 0 W/m2
20:15 36.9 °F 35.9 °F 30.32 in NE 5.0 mph 11.0 mph 96 % 0.00 in 0 W/m2
20:20 36.9 °F 35.9 °F 30.32 in ENE 5.0 mph 5.0 mph 96 % 0.00 in 0 W/m2
20:25 36.9 °F 35.9 °F 30.32 in East 5.0 mph 11.0 mph 96 % 0.00 in 0 W/m2
20:35 37.0 °F 36.0 °F 30.32 in ENE 6.0 mph 11.0 mph 96 % 0.00 in 0 W/m2
20:40 37.0 °F 36.0 °F 30.31 in NE 5.0 mph 11.0 mph 96 % 0.00 in 0 W/m2
20:50 37.1 °F 36.1 °F 30.31 in NE 7.0 mph 14.0 mph 96 % 0.00 in 0 W/m2
20:55 37.2 °F 36.2 °F 30.31 in NE 7.0 mph 14.0 mph 96 % 0.00 in 0 W/m2
21:00 37.2 °F 36.2 °F 30.31 in NNE 7.0 mph 11.0 mph 96 % 0.00 in 0 W/m2
21:05 37.3 °F 36.3 °F 30.31 in NNE 7.0 mph 11.0 mph 96 % 0.00 in 0 W/m2
21:10 37.3 °F 36.3 °F 30.31 in NNE 7.0 mph 11.0 mph 96 % 0.00 in 0 W/m2
21:20 37.4 °F 36.4 °F 30.32 in NE 4.0 mph 11.0 mph 96 % 0.00 in 0 W/m2
21:35 37.4 °F 36.4 °F 30.32 in East 7.0 mph 11.0 mph 96 % 0.00 in 0 W/m2
21:40 37.4 °F 36.4 °F 30.32 in NE 7.0 mph 7.0 mph 96 % 0.00 in 0 W/m2
21:45 37.4 °F 36.4 °F 30.32 in ENE 8.0 mph 10.0 mph 96 % 0.00 in 0 W/m2
21:50 37.4 °F 36.4 °F 30.32 in ESE 9.0 mph 11.0 mph 96 % 0.00 in 0 W/m2
21:55 37.4 °F 36.4 °F 30.32 in East 7.0 mph 11.0 mph 96 % 0.00 in 0 W/m2
22:00 37.4 °F 36.4 °F 30.32 in NE 6.0 mph 11.0 mph 96 % 0.00 in 0 W/m2
22:10 37.2 °F 36.2 °F 30.32 in ENE 8.0 mph 11.0 mph 96 % 0.00 in 0 W/m2
22:15 37.2 °F 36.2 °F 30.32 in ENE 9.0 mph 11.0 mph 96 % 0.00 in 0 W/m2
22:20 37.2 °F 36.2 °F 30.32 in NNE 8.0 mph 11.0 mph 96 % 0.00 in 0 W/m2
22:30 37.2 °F 36.2 °F 30.32 in East 6.0 mph 11.0 mph 96 % 0.00 in 0 W/m2
22:35 37.2 °F 36.2 °F 30.32 in NE 6.0 mph 11.0 mph 96 % 0.00 in 0 W/m2
22:40 37.1 °F 36.1 °F 30.33 in NNE 7.0 mph 11.0 mph 96 % 0.00 in 0 W/m2
22:45 37.1 °F 36.1 °F 30.32 in ENE 8.0 mph 11.0 mph 96 % 0.00 in 0 W/m2
22:55 37.0 °F 36.0 °F 30.33 in ENE 7.0 mph 9.0 mph 96 % 0.00 in 0 W/m2
23:00 37.0 °F 36.0 °F 30.33 in East 7.0 mph 11.0 mph 96 % 0.00 in 0 W/m2
23:05 36.9 °F 35.9 °F 30.33 in East 8.0 mph 11.0 mph 96 % 0.00 in 0 W/m2
23:10 36.9 °F 35.9 °F 30.33 in ENE 9.0 mph 11.0 mph 96 % 0.00 in 0 W/m2
23:15 36.9 °F 35.9 °F 30.33 in NE 8.0 mph 11.0 mph 96 % 0.00 in 0 W/m2
23:20 36.8 °F 35.8 °F 30.33 in East 6.0 mph 11.0 mph 96 % 0.00 in 0 W/m2
23:25 36.8 °F 35.8 °F 30.33 in ESE 6.0 mph 11.0 mph 96 % 0.00 in 0 W/m2
23:35 36.7 °F 35.7 °F 30.33 in East 6.0 mph 11.0 mph 96 % 0.00 in 0 W/m2
23:40 36.7 °F 35.7 °F 30.33 in NE 6.0 mph 6.0 mph 96 % 0.00 in 0 W/m2
23:45 36.7 °F 35.7 °F 30.33 in NE 6.0 mph 8.0 mph 96 % 0.00 in 0 W/m2
23:50 36.6 °F 35.6 °F 30.33 in East 6.0 mph 6.0 mph 96 % 0.00 in 0 W/m2
23:55 36.6 °F 35.6 °F 30.33 in ENE 7.0 mph 11.0 mph 96 % 0.00 in 0 W/m2
Delerius-Weather
Compliments of Weather Underground - 2 mb

Data updates at regular intervals.